iso_date,epoch_date,Year,Hour,Min,DOY,POS_DOY,Lat,Lon,BP,Ts,Ta,has_bp,has_ts,has_ta,BuoyID,Buoy_Type,Buoy_Owner,Logistics,Hemisphere
2018-06-15T18:00:00Z,1529085600,2018,18,0,166.75,166.75,85.2828,-147.515,1018.8,0.3,3.3,yes,yes,yes,300234066039120,SVP,EC,ICE-PPR(RCAF-USIABP),North
2018-06-15T19:00:02Z,1529089203,2018,19,0,166.7917,166.75,85.2828,-147.515,1018.4,0.4,3.6,yes,yes,yes,300234066039120,SVP,EC,ICE-PPR(RCAF-USIABP),North
2018-06-15T19:59:57Z,1529092797,2018,20,0,166.8333,166.75,85.2828,-147.515,1018.0,0.4,5.0,yes,yes,yes,300234066039120,SVP,EC,ICE-PPR(RCAF-USIABP),North
2018-06-15T21:00:00Z,1529096400,2018,21,0,166.875,166.875,85.2806,-147.509,1017.5,0.5,5.0,yes,yes,yes,300234066039120,SVP,EC,ICE-PPR(RCAF-USIABP),North
2018-06-15T22:00:02Z,1529100003,2018,22,0,166.9167,166.875,85.2806,-147.509,1017.2,0.6,4.3,yes,yes,yes,300234066039120,SVP,EC,ICE-PPR(RCAF-USIABP),North
2018-06-15T22:59:57Z,1529103597,2018,23,0,166.9583,166.875,85.2806,-147.509,1016.8,0.7,4.7,yes,yes,yes,300234066039120,SVP,EC,ICE-PPR(RCAF-USIABP),North
2018-06-16T00:00:00Z,1529107200,2018,0,0,167.0,167.0,85.2796,-147.5044,1016.3,0.8,4.6,yes,yes,yes,300234066039120,SVP,EC,ICE-PPR(RCAF-USIABP),North
2018-06-16T01:00:02Z,1529110803,2018,1,0,167.0417,167.0,85.2796,-147.5044,1015.7,0.8,4.2,yes,yes,yes,300234066039120,SVP,EC,ICE-PPR(RCAF-USIABP),North
2018-06-16T01:59:57Z,1529114397,2018,2,0,167.0833,167.0,85.2796,-147.5044,1015.2,0.9,6.1,yes,yes,yes,300234066039120,SVP,EC,ICE-PPR(RCAF-USIABP),North
2018-06-16T03:00:00Z,1529118000,2018,3,0,167.125,167.125,85.2786,-147.501,1014.5,0.9,5.0,yes,yes,yes,300234066039120,SVP,EC,ICE-PPR(RCAF-USIABP),North
2018-06-16T04:00:02Z,1529121603,2018,4,0,167.1667,167.125,85.2786,-147.501,1013.8,0.9,4.2,yes,yes,yes,300234066039120,SVP,EC,ICE-PPR(RCAF-USIABP),North
2018-06-16T04:59:57Z,1529125197,2018,5,0,167.2083,167.125,85.2786,-147.501,1013.1,0.9,3.8,yes,yes,yes,300234066039120,SVP,EC,ICE-PPR(RCAF-USIABP),North
2018-06-16T06:00:00Z,1529128800,2018,6,0,167.25,167.25,85.2772,-147.4992,1012.5,0.9,3.4,yes,yes,yes,300234066039120,SVP,EC,ICE-PPR(RCAF-USIABP),North
2018-06-16T07:00:02Z,1529132403,2018,7,0,167.2917,167.25,85.2772,-147.4992,1012.0,0.9,3.7,yes,yes,yes,300234066039120,SVP,EC,ICE-PPR(RCAF-USIABP),North
2018-06-16T07:59:57Z,1529135997,2018,8,0,167.3333,167.25,85.2772,-147.4992,1011.5,0.9,3.1,yes,yes,yes,300234066039120,SVP,EC,ICE-PPR(RCAF-USIABP),North
2018-06-16T09:00:00Z,1529139600,2018,9,0,167.375,167.375,85.276,-147.5064,1010.7,0.8,1.7,yes,yes,yes,300234066039120,SVP,EC,ICE-PPR(RCAF-USIABP),North
2018-06-16T10:00:02Z,1529143203,2018,10,0,167.4167,167.375,85.276,-147.5064,1010.2,0.8,1.4,yes,yes,yes,300234066039120,SVP,EC,ICE-PPR(RCAF-USIABP),North
2018-06-16T10:59:57Z,1529146797,2018,11,0,167.4583,167.375,85.276,-147.5064,1009.7,0.7,0.8,yes,yes,yes,300234066039120,SVP,EC,ICE-PPR(RCAF-USIABP),North
2018-06-16T12:00:00Z,1529150400,2018,12,0,167.5,167.5,85.2764,-147.5294,1009.2,0.6,0.6,yes,yes,yes,300234066039120,SVP,EC,ICE-PPR(RCAF-USIABP),North
2018-06-16T13:00:02Z,1529154003,2018,13,0,167.5417,167.5,85.2764,-147.5294,1008.8,0.6,0.4,yes,yes,yes,300234066039120,SVP,EC,ICE-PPR(RCAF-USIABP),North
2018-06-16T13:59:57Z,1529157597,2018,14,0,167.5833,167.5,85.2764,-147.5294,1008.5,0.6,0.0,yes,yes,yes,300234066039120,SVP,EC,ICE-PPR(RCAF-USIABP),North
2018-06-16T15:00:00Z,1529161200,2018,15,0,167.625,167.625,85.2782,-147.5746,1008.0,0.6,0.3,yes,yes,yes,300234066039120,SVP,EC,ICE-PPR(RCAF-USIABP),North
2018-06-16T16:00:02Z,1529164803,2018,16,0,167.6667,167.625,85.2782,-147.5746,1007.8,0.7,0.5,yes,yes,yes,300234066039120,SVP,EC,ICE-PPR(RCAF-USIABP),North
2018-06-16T16:59:57Z,1529168397,2018,17,0,167.7083,167.625,85.2782,-147.5746,1007.6,0.7,0.6,yes,yes,yes,300234066039120,SVP,EC,ICE-PPR(RCAF-USIABP),North
2018-06-16T18:00:00Z,1529172000,2018,18,0,167.75,167.75,85.2796,-147.6652,1007.4,0.6,0.9,yes,yes,yes,300234066039120,SVP,EC,ICE-PPR(RCAF-USIABP),North
2018-06-16T19:00:02Z,1529175603,2018,19,0,167.7917,167.75,85.2796,-147.6652,1007.4,0.7,0.6,yes,yes,yes,300234066039120,SVP,EC,ICE-PPR(RCAF-USIABP),North
2018-06-16T19:59:57Z,1529179197,2018,20,0,167.8333,167.75,85.2796,-147.6652,1007.4,0.7,1.0,yes,yes,yes,300234066039120,SVP,EC,ICE-PPR(RCAF-USIABP),North
2018-06-16T21:00:00Z,1529182800,2018,21,0,167.875,167.875,85.2802,-147.7906,1007.5,0.7,0.6,yes,yes,yes,300234066039120,SVP,EC,ICE-PPR(RCAF-USIABP),North
2018-06-16T22:00:02Z,1529186403,2018,22,0,167.9167,167.875,85.2802,-147.7906,1007.6,0.6,0.5,yes,yes,yes,300234066039120,SVP,EC,ICE-PPR(RCAF-USIABP),North
2018-06-16T22:59:57Z,1529189997,2018,23,0,167.9583,167.875,85.2802,-147.7906,1007.8,0.5,0.5,yes,yes,yes,300234066039120,SVP,EC,ICE-PPR(RCAF-USIABP),North
2018-06-17T00:00:00Z,1529193600,2018,0,0,168.0,168.0,85.2814,-147.9334,1008.0,0.4,0.4,yes,yes,yes,300234066039120,SVP,EC,ICE-PPR(RCAF-USIABP),North
2018-06-17T01:00:02Z,1529197203,2018,1,0,168.0417,168.0,85.2814,-147.9334,1008.2,0.4,0.3,yes,yes,yes,300234066039120,SVP,EC,ICE-PPR(RCAF-USIABP),North
2018-06-17T01:59:57Z,1529200797,2018,2,0,168.0833,168.0,85.2814,-147.9334,1008.3,0.4,0.3,yes,yes,yes,300234066039120,SVP,EC,ICE-PPR(RCAF-USIABP),North
2018-06-17T03:00:00Z,1529204400,2018,3,0,168.125,168.125,85.2826,-148.0756,1008.5,0.3,0.3,yes,yes,yes,300234066039120,SVP,EC,ICE-PPR(RCAF-USIABP),North
2018-06-17T04:00:02Z,1529208003,2018,4,0,168.1667,168.125,85.2826,-148.0756,1008.6,0.3,0.3,yes,yes,yes,300234066039120,SVP,EC,ICE-PPR(RCAF-USIABP),North
2018-06-17T04:59:57Z,1529211597,2018,5,0,168.2083,168.125,85.2826,-148.0756,1008.8,0.2,0.4,yes,yes,yes,300234066039120,SVP,EC,ICE-PPR(RCAF-USIABP),North
2018-06-17T06:00:00Z,1529215200,2018,6,0,168.25,168.25,85.2808,-148.1992,1009.0,0.2,0.3,yes,yes,yes,300234066039120,SVP,EC,ICE-PPR(RCAF-USIABP),North
2018-06-17T07:00:02Z,1529218803,2018,7,0,168.2917,168.25,85.2808,-148.1992,1009.2,0.1,0.3,yes,yes,yes,300234066039120,SVP,EC,ICE-PPR(RCAF-USIABP),North
2018-06-17T07:59:57Z,1529222397,2018,8,0,168.3333,168.25,85.2808,-148.1992,1009.4,0.1,0.3,yes,yes,yes,300234066039120,SVP,EC,ICE-PPR(RCAF-USIABP),North
2018-06-17T09:00:00Z,1529226000,2018,9,0,168.375,168.375,85.2784,-148.3262,1009.6,0.1,0.2,yes,yes,yes,300234066039120,SVP,EC,ICE-PPR(RCAF-USIABP),North
2018-06-17T10:00:02Z,1529229603,2018,10,0,168.4167,168.375,85.2784,-148.3262,1009.8,0.0,-0.2,yes,yes,yes,300234066039120,SVP,EC,ICE-PPR(RCAF-USIABP),North
2018-06-17T10:59:57Z,1529233197,2018,11,0,168.4583,168.375,85.2784,-148.3262,1010.1,-0.1,-0.7,yes,yes,yes,300234066039120,SVP,EC,ICE-PPR(RCAF-USIABP),North
2018-06-17T12:00:00Z,1529236800,2018,12,0,168.5,168.5,85.2758,-148.4352,1010.3,-0.2,-1.4,yes,yes,yes,300234066039120,SVP,EC,ICE-PPR(RCAF-USIABP),North
2018-06-17T13:00:02Z,1529240403,2018,13,0,168.5417,168.5,85.2758,-148.4352,1010.3,-0.3,-1.4,yes,yes,yes,300234066039120,SVP,EC,ICE-PPR(RCAF-USIABP),North
2018-06-17T13:59:57Z,1529243997,2018,14,0,168.5833,168.5,85.2758,-148.4352,1010.1,-0.4,-1.5,yes,yes,yes,300234066039120,SVP,EC,ICE-PPR(RCAF-USIABP),North
2018-06-17T15:00:00Z,1529247600,2018,15,0,168.625,168.625,85.2724,-148.5132,1009.8,-0.5,-1.1,yes,yes,yes,300234066039120,SVP,EC,ICE-PPR(RCAF-USIABP),North
2018-06-17T16:00:02Z,1529251203,2018,16,0,168.6667,168.625,85.2724,-148.5132,1009.9,-0.6,-1.0,yes,yes,yes,300234066039120,SVP,EC,ICE-PPR(RCAF-USIABP),North
2018-06-17T16:59:57Z,1529254797,2018,17,0,168.7083,168.625,85.2724,-148.5132,1009.8,-0.7,-0.9,yes,yes,yes,300234066039120,SVP,EC,ICE-PPR(RCAF-USIABP),North
2018-06-17T18:00:00Z,1529258400,2018,18,0,168.75,168.75,85.2664,-148.57,1009.6,-0.7,-0.7,yes,yes,yes,300234066039120,SVP,EC,ICE-PPR(RCAF-USIABP),North
2018-06-17T19:00:02Z,1529262003,2018,19,0,168.7917,168.75,85.2664,-148.57,1009.3,-0.7,-0.5,yes,yes,yes,300234066039120,SVP,EC,ICE-PPR(RCAF-USIABP),North
2018-06-17T19:59:57Z,1529265597,2018,20,0,168.8333,168.75,85.2664,-148.57,1009.2,-0.6,-0.3,yes,yes,yes,300234066039120,SVP,EC,ICE-PPR(RCAF-USIABP),North
2018-06-17T21:00:00Z,1529269200,2018,21,0,168.875,168.875,85.2588,-148.617,1008.9,-0.6,0.1,yes,yes,yes,300234066039120,SVP,EC,ICE-PPR(RCAF-USIABP),North
2018-06-17T22:00:02Z,1529272803,2018,22,0,168.9167,168.875,85.2588,-148.617,1008.7,-0.5,1.0,yes,yes,yes,300234066039120,SVP,EC,ICE-PPR(RCAF-USIABP),North
2018-06-17T22:59:57Z,1529276397,2018,23,0,168.9583,168.875,85.2588,-148.617,1008.5,-0.4,1.2,yes,yes,yes,300234066039120,SVP,EC,ICE-PPR(RCAF-USIABP),North
2018-06-18T00:00:00Z,1529280000,2018,0,0,169.0,169.0,85.2516,-148.6336,1008.2,-0.2,1.9,yes,yes,yes,300234066039120,SVP,EC,ICE-PPR(RCAF-USIABP),North
2018-06-18T01:00:02Z,1529283603,2018,1,0,169.0417,169.0,85.2516,-148.6336,1008.1,-0.2,1.7,yes,yes,yes,300234066039120,SVP,EC,ICE-PPR(RCAF-USIABP),North
2018-06-18T01:59:57Z,1529287197,2018,2,0,169.0833,169.0,85.2516,-148.6336,1007.8,0.0,1.0,yes,yes,yes,300234066039120,SVP,EC,ICE-PPR(RCAF-USIABP),North
2018-06-18T03:00:00Z,1529290800,2018,3,0,169.125,169.125,85.2446,-148.612,1007.4,0.0,0.6,yes,yes,yes,300234066039120,SVP,EC,ICE-PPR(RCAF-USIABP),North
2018-06-18T04:00:02Z,1529294403,2018,4,0,169.1667,169.125,85.2446,-148.612,1007.0,-0.1,0.5,yes,yes,yes,300234066039120,SVP,EC,ICE-PPR(RCAF-USIABP),North
2018-06-18T04:59:57Z,1529297997,2018,5,0,169.2083,169.125,85.2446,-148.612,1007.0,-0.1,0.4,yes,yes,yes,300234066039120,SVP,EC,ICE-PPR(RCAF-USIABP),North
2018-06-18T06:00:00Z,1529301600,2018,6,0,169.25,169.25,85.236,-148.5734,1006.7,-0.2,0.1,yes,yes,yes,300234066039120,SVP,EC,ICE-PPR(RCAF-USIABP),North
2018-06-18T07:00:02Z,1529305203,2018,7,0,169.2917,169.25,85.236,-148.5734,1006.6,-0.3,-0.1,yes,yes,yes,300234066039120,SVP,EC,ICE-PPR(RCAF-USIABP),North
2018-06-18T07:59:57Z,1529308797,2018,8,0,169.3333,169.25,85.236,-148.5734,1006.4,-0.8,-0.9,yes,yes,yes,300234066039120,SVP,EC,ICE-PPR(RCAF-USIABP),North
2018-06-18T09:00:00Z,1529312400,2018,9,0,169.375,169.375,85.2284,-148.5546,1006.1,-0.7,-0.6,yes,yes,yes,300234066039120,SVP,EC,ICE-PPR(RCAF-USIABP),North
2018-06-18T10:00:02Z,1529316003,2018,10,0,169.4167,169.375,85.2284,-148.5546,1005.9,-0.6,-0.1,yes,yes,yes,300234066039120,SVP,EC,ICE-PPR(RCAF-USIABP),North
2018-06-18T10:59:57Z,1529319597,2018,11,0,169.4583,169.375,85.2284,-148.5546,1005.6,-0.5,-0.2,yes,yes,yes,300234066039120,SVP,EC,ICE-PPR(RCAF-USIABP),North
2018-06-18T12:00:00Z,1529323200,2018,12,0,169.5,169.5,85.2226,-148.5178,1005.4,-0.5,-0.2,yes,yes,yes,300234066039120,SVP,EC,ICE-PPR(RCAF-USIABP),North
2018-06-18T13:00:02Z,1529326803,2018,13,0,169.5417,169.5,85.2226,-148.5178,1004.9,-0.4,0.2,yes,yes,yes,300234066039120,SVP,EC,ICE-PPR(RCAF-USIABP),North
2018-06-18T13:59:57Z,1529330397,2018,14,0,169.5833,169.5,85.2226,-148.5178,1004.6,-0.3,0.3,yes,yes,yes,300234066039120,SVP,EC,ICE-PPR(RCAF-USIABP),North
2018-06-18T15:00:00Z,1529334000,2018,15,0,169.625,169.625,85.2174,-148.4364,1004.1,-0.3,0.4,yes,yes,yes,300234066039120,SVP,EC,ICE-PPR(RCAF-USIABP),North
2018-06-18T16:00:02Z,1529337603,2018,16,0,169.6667,169.625,85.2174,-148.4364,1003.7,-0.2,0.6,yes,yes,yes,300234066039120,SVP,EC,ICE-PPR(RCAF-USIABP),North
2018-06-18T16:59:57Z,1529341197,2018,17,0,169.7083,169.625,85.2174,-148.4364,1003.3,-0.2,0.6,yes,yes,yes,300234066039120,SVP,EC,ICE-PPR(RCAF-USIABP),North
2018-06-18T18:00:00Z,1529344800,2018,18,0,169.75,169.75,85.2114,-148.354,1003.1,-0.1,0.5,yes,yes,yes,300234066039120,SVP,EC,ICE-PPR(RCAF-USIABP),North
2018-06-18T19:00:02Z,1529348403,2018,19,0,169.7917,169.75,85.2114,-148.354,1002.8,-0.1,0.6,yes,yes,yes,300234066039120,SVP,EC,ICE-PPR(RCAF-USIABP),North
2018-06-18T19:59:57Z,1529351997,2018,20,0,169.8333,169.75,85.2114,-148.354,1002.5,-0.1,1.5,yes,yes,yes,300234066039120,SVP,EC,ICE-PPR(RCAF-USIABP),North
2018-06-18T21:00:00Z,1529355600,2018,21,0,169.875,169.875,85.2056,-148.297,1002.5,-0.1,1.5,yes,yes,yes,300234066039120,SVP,EC,ICE-PPR(RCAF-USIABP),North
2018-06-18T22:00:02Z,1529359203,2018,22,0,169.9167,169.875,85.2056,-148.297,1002.3,0.0,1.3,yes,yes,yes,300234066039120,SVP,EC,ICE-PPR(RCAF-USIABP),North
2018-06-18T22:59:57Z,1529362797,2018,23,0,169.9583,169.875,85.2056,-148.297,1001.9,0.0,1.4,yes,yes,yes,300234066039120,SVP,EC,ICE-PPR(RCAF-USIABP),North
2018-06-19T00:00:00Z,1529366400,2018,0,0,170.0,170.0,85.2012,-148.2422,1001.8,0.0,1.6,yes,yes,yes,300234066039120,SVP,EC,ICE-PPR(RCAF-USIABP),North
2018-06-19T01:00:02Z,1529370003,2018,1,0,170.0417,170.0,85.2012,-148.2422,1001.5,0.0,1.8,yes,yes,yes,300234066039120,SVP,EC,ICE-PPR(RCAF-USIABP),North
2018-06-19T01:59:57Z,1529373597,2018,2,0,170.0833,170.0,85.2012,-148.2422,1001.4,0.1,1.8,yes,yes,yes,300234066039120,SVP,EC,ICE-PPR(RCAF-USIABP),North
2018-06-19T03:00:00Z,1529377200,2018,3,0,170.125,170.125,85.1972,-148.1756,1001.3,0.1,2.1,yes,yes,yes,300234066039120,SVP,EC,ICE-PPR(RCAF-USIABP),North
2018-06-19T04:00:02Z,1529380803,2018,4,0,170.1667,170.125,85.1972,-148.1756,1001.0,0.1,1.9,yes,yes,yes,300234066039120,SVP,EC,ICE-PPR(RCAF-USIABP),North
2018-06-19T04:59:57Z,1529384397,2018,5,0,170.2083,170.125,85.1972,-148.1756,1001.0,0.1,1.9,yes,yes,yes,300234066039120,SVP,EC,ICE-PPR(RCAF-USIABP),North
2018-06-19T06:00:00Z,1529388000,2018,6,0,170.25,170.25,85.1922,-148.1192,1000.9,0.1,1.7,yes,yes,yes,300234066039120,SVP,EC,ICE-PPR(RCAF-USIABP),North
2018-06-19T07:00:02Z,1529391603,2018,7,0,170.2917,170.25,85.1922,-148.1192,1001.0,0.2,2.2,yes,yes,yes,300234066039120,SVP,EC,ICE-PPR(RCAF-USIABP),North
2018-06-19T07:59:57Z,1529395197,2018,8,0,170.3333,170.25,85.1922,-148.1192,1001.2,0.2,2.2,yes,yes,yes,300234066039120,SVP,EC,ICE-PPR(RCAF-USIABP),North
2018-06-19T09:00:00Z,1529398800,2018,9,0,170.375,170.375,85.1872,-148.0936,1001.2,0.2,2.4,yes,yes,yes,300234066039120,SVP,EC,ICE-PPR(RCAF-USIABP),North
2018-06-19T10:00:02Z,1529402403,2018,10,0,170.4167,170.375,85.1872,-148.0936,1001.3,0.2,2.6,yes,yes,yes,300234066039120,SVP,EC,ICE-PPR(RCAF-USIABP),North
2018-06-19T10:59:57Z,1529405997,2018,11,0,170.4583,170.375,85.1872,-148.0936,1001.4,0.2,2.4,yes,yes,yes,300234066039120,SVP,EC,ICE-PPR(RCAF-USIABP),North
2018-06-19T12:00:00Z,1529409600,2018,12,0,170.5,170.5,85.1838,-148.08,1001.4,0.2,2.6,yes,yes,yes,300234066039120,SVP,EC,ICE-PPR(RCAF-USIABP),North
2018-06-19T13:00:02Z,1529413203,2018,13,0,170.5417,170.5,85.1838,-148.08,1001.3,0.2,2.3,yes,yes,yes,300234066039120,SVP,EC,ICE-PPR(RCAF-USIABP),North
2018-06-19T13:59:57Z,1529416797,2018,14,0,170.5833,170.5,85.1838,-148.08,1001.3,0.2,2.4,yes,yes,yes,300234066039120,SVP,EC,ICE-PPR(RCAF-USIABP),North
2018-06-19T15:00:00Z,1529420400,2018,15,0,170.625,170.625,85.1814,-148.0488,1001.4,0.2,2.6,yes,yes,yes,300234066039120,SVP,EC,ICE-PPR(RCAF-USIABP),North
2018-06-19T16:00:02Z,1529424003,2018,16,0,170.6667,170.625,85.1814,-148.0488,1001.5,0.3,3.6,yes,yes,yes,300234066039120,SVP,EC,ICE-PPR(RCAF-USIABP),North
2018-06-19T16:59:57Z,1529427597,2018,17,0,170.7083,170.625,85.1814,-148.0488,1001.6,0.3,3.7,yes,yes,yes,300234066039120,SVP,EC,ICE-PPR(RCAF-USIABP),North
2018-06-19T18:00:00Z,1529431200,2018,18,0,170.75,170.75,85.178,-148.0144,1001.7,0.4,3.8,yes,yes,yes,300234066039120,SVP,EC,ICE-PPR(RCAF-USIABP),North
2018-06-19T19:00:02Z,1529434803,2018,19,0,170.7917,170.75,85.178,-148.0144,1001.8,0.4,3.9,yes,yes,yes,300234066039120,SVP,EC,ICE-PPR(RCAF-USIABP),North
2018-06-19T19:59:57Z,1529438397,2018,20,0,170.8333,170.75,85.178,-148.0144,1001.9,0.4,5.3,yes,yes,yes,300234066039120,SVP,EC,ICE-PPR(RCAF-USIABP),North
2018-06-19T21:00:00Z,1529442000,2018,21,0,170.875,170.875,85.1748,-147.9952,1002.0,0.5,5.1,yes,yes,yes,300234066039120,SVP,EC,ICE-PPR(RCAF-USIABP),North
2018-06-19T22:00:02Z,1529445603,2018,22,0,170.9167,170.875,85.1748,-147.9952,1002.2,0.6,3.6,yes,yes,yes,300234066039120,SVP,EC,ICE-PPR(RCAF-USIABP),North
2018-06-19T22:59:57Z,1529449197,2018,23,0,170.9583,170.875,85.1748,-147.9952,1002.3,0.6,3.0,yes,yes,yes,300234066039120,SVP,EC,ICE-PPR(RCAF-USIABP),North
2018-06-20T00:00:00Z,1529452800,2018,0,0,171.0,171.0,85.1728,-147.9668,1002.4,0.6,2.5,yes,yes,yes,300234066039120,SVP,EC,ICE-PPR(RCAF-USIABP),North
2018-06-20T01:00:02Z,1529456403,2018,1,0,171.0417,171.0,85.1728,-147.9668,1002.6,0.7,2.4,yes,yes,yes,300234066039120,SVP,EC,ICE-PPR(RCAF-USIABP),North
2018-06-20T01:59:57Z,1529459997,2018,2,0,171.0833,171.0,85.1728,-147.9668,1002.6,0.7,2.1,yes,yes,yes,300234066039120,SVP,EC,ICE-PPR(RCAF-USIABP),North
2018-06-20T03:00:00Z,1529463600,2018,3,0,171.125,171.125,85.1704,-147.9188,1002.6,0.7,2.3,yes,yes,yes,300234066039120,SVP,EC,ICE-PPR(RCAF-USIABP),North
2018-06-20T04:00:02Z,1529467203,2018,4,0,171.1667,171.125,85.1704,-147.9188,1002.7,0.7,2.5,yes,yes,yes,300234066039120,SVP,EC,ICE-PPR(RCAF-USIABP),North
2018-06-20T04:59:57Z,1529470797,2018,5,0,171.2083,171.125,85.1704,-147.9188,1002.8,0.7,2.0,yes,yes,yes,300234066039120,SVP,EC,ICE-PPR(RCAF-USIABP),North
2018-06-20T06:00:00Z,1529474400,2018,6,0,171.25,171.25,85.167,-147.8734,1002.7,0.7,1.9,yes,yes,yes,300234066039120,SVP,EC,ICE-PPR(RCAF-USIABP),North
2018-06-20T07:00:02Z,1529478003,2018,7,0,171.2917,171.25,85.167,-147.8734,1002.9,0.7,1.4,yes,yes,yes,300234066039120,SVP,EC,ICE-PPR(RCAF-USIABP),North
2018-06-20T07:59:57Z,1529481597,2018,8,0,171.3333,171.25,85.167,-147.8734,1002.9,0.6,1.2,yes,yes,yes,300234066039120,SVP,EC,ICE-PPR(RCAF-USIABP),North
2018-06-20T09:00:00Z,1529485200,2018,9,0,171.375,171.375,85.1628,-147.8488,1002.9,0.6,1.1,yes,yes,yes,300234066039120,SVP,EC,ICE-PPR(RCAF-USIABP),North
2018-06-20T10:00:02Z,1529488803,2018,10,0,171.4167,171.375,85.1628,-147.8488,1002.9,0.6,0.9,yes,yes,yes,300234066039120,SVP,EC,ICE-PPR(RCAF-USIABP),North
2018-06-20T10:59:57Z,1529492397,2018,11,0,171.4583,171.375,85.1628,-147.8488,1003.0,0.6,0.9,yes,yes,yes,300234066039120,SVP,EC,ICE-PPR(RCAF-USIABP),North
2018-06-20T12:00:00Z,1529496000,2018,12,0,171.5,171.5,85.1588,-147.836,1003.0,0.6,1.0,yes,yes,yes,300234066039120,SVP,EC,ICE-PPR(RCAF-USIABP),North
2018-06-20T13:00:02Z,1529499603,2018,13,0,171.5417,171.5,85.1588,-147.836,1003.0,0.6,0.9,yes,yes,yes,300234066039120,SVP,EC,ICE-PPR(RCAF-USIABP),North
2018-06-20T13:59:57Z,1529503197,2018,14,0,171.5833,171.5,85.1588,-147.836,1002.7,0.6,1.2,yes,yes,yes,300234066039120,SVP,EC,ICE-PPR(RCAF-USIABP),North
2018-06-20T15:00:00Z,1529506800,2018,15,0,171.625,171.625,85.1542,-147.8248,1002.5,0.6,1.4,yes,yes,yes,300234066039120,SVP,EC,ICE-PPR(RCAF-USIABP),North
2018-06-20T16:00:02Z,1529510403,2018,16,0,171.6667,171.625,85.1542,-147.8248,1002.6,0.7,1.7,yes,yes,yes,300234066039120,SVP,EC,ICE-PPR(RCAF-USIABP),North
2018-06-20T16:59:57Z,1529513997,2018,17,0,171.7083,171.625,85.1542,-147.8248,1002.8,0.7,1.6,yes,yes,yes,300234066039120,SVP,EC,ICE-PPR(RCAF-USIABP),North
2018-06-20T18:00:00Z,1529517600,2018,18,0,171.75,171.75,85.1484,-147.836,1002.9,0.7,2.3,yes,yes,yes,300234066039120,SVP,EC,ICE-PPR(RCAF-USIABP),North
2018-06-20T19:00:02Z,1529521203,2018,19,0,171.7917,171.75,85.1484,-147.836,1003.2,0.7,1.6,yes,yes,yes,300234066039120,SVP,EC,ICE-PPR(RCAF-USIABP),North
2018-06-20T19:59:57Z,1529524797,2018,20,0,171.8333,171.75,85.1484,-147.836,1003.5,0.7,1.4,yes,yes,yes,300234066039120,SVP,EC,ICE-PPR(RCAF-USIABP),North
2018-06-20T21:00:00Z,1529528400,2018,21,0,171.875,171.875,85.1426,-147.877,1003.8,0.7,0.9,yes,yes,yes,300234066039120,SVP,EC,ICE-PPR(RCAF-USIABP),North
2018-06-20T22:00:02Z,1529532003,2018,22,0,171.9167,171.875,85.1426,-147.877,1003.9,0.7,0.7,yes,yes,yes,300234066039120,SVP,EC,ICE-PPR(RCAF-USIABP),North
2018-06-20T22:59:57Z,1529535597,2018,23,0,171.9583,171.875,85.1426,-147.877,1004.1,0.7,1.5,yes,yes,yes,300234066039120,SVP,EC,ICE-PPR(RCAF-USIABP),North
2018-06-21T00:00:00Z,1529539200,2018,0,0,172.0,172.0,85.1372,-147.9132,1004.2,0.7,1.4,yes,yes,yes,300234066039120,SVP,EC,ICE-PPR(RCAF-USIABP),North
2018-06-21T01:00:02Z,1529542803,2018,1,0,172.0417,172.0,85.1372,-147.9132,1004.2,0.6,2.9,yes,yes,yes,300234066039120,SVP,EC,ICE-PPR(RCAF-USIABP),North
2018-06-21T01:59:57Z,1529546397,2018,2,0,172.0833,172.0,85.1372,-147.9132,1004.1,0.5,2.1,yes,yes,yes,300234066039120,SVP,EC,ICE-PPR(RCAF-USIABP),North
2018-06-21T03:00:00Z,1529550000,2018,3,0,172.125,172.125,85.1314,-147.8816,1003.8,0.5,1.5,yes,yes,yes,300234066039120,SVP,EC,ICE-PPR(RCAF-USIABP),North
2018-06-21T04:00:02Z,1529553603,2018,4,0,172.1667,172.125,85.1314,-147.8816,1003.6,0.5,1.2,yes,yes,yes,300234066039120,SVP,EC,ICE-PPR(RCAF-USIABP),North
2018-06-21T04:59:57Z,1529557197,2018,5,0,172.2083,172.125,85.1314,-147.8816,1003.3,0.3,0.8,yes,yes,yes,300234066039120,SVP,EC,ICE-PPR(RCAF-USIABP),North
2018-06-21T06:00:00Z,1529560800,2018,6,0,172.25,172.25,85.1236,-147.8106,1003.1,0.3,0.7,yes,yes,yes,300234066039120,SVP,EC,ICE-PPR(RCAF-USIABP),North
2018-06-21T07:00:02Z,1529564403,2018,7,0,172.2917,172.25,85.1236,-147.8106,1002.8,0.3,0.5,yes,yes,yes,300234066039120,SVP,EC,ICE-PPR(RCAF-USIABP),North
2018-06-21T07:59:57Z,1529567997,2018,8,0,172.3333,172.25,85.1236,-147.8106,1002.4,0.3,0.5,yes,yes,yes,300234066039120,SVP,EC,ICE-PPR(RCAF-USIABP),North
2018-06-21T09:00:00Z,1529571600,2018,9,0,172.375,172.375,85.1154,-147.726,1002.0,0.3,0.6,yes,yes,yes,300234066039120,SVP,EC,ICE-PPR(RCAF-USIABP),North
2018-06-21T10:00:02Z,1529575203,2018,10,0,172.4167,172.375,85.1154,-147.726,1001.5,0.3,0.5,yes,yes,yes,300234066039120,SVP,EC,ICE-PPR(RCAF-USIABP),North
2018-06-21T10:59:57Z,1529578797,2018,11,0,172.4583,172.375,85.1154,-147.726,1001.1,0.3,0.5,yes,yes,yes,300234066039120,SVP,EC,ICE-PPR(RCAF-USIABP),North
2018-06-21T12:00:00Z,1529582400,2018,12,0,172.5,172.5,85.1088,-147.597,1000.6,0.3,0.4,yes,yes,yes,300234066039120,SVP,EC,ICE-PPR(RCAF-USIABP),North
2018-06-21T13:00:02Z,1529586003,2018,13,0,172.5417,172.5,85.1088,-147.597,1000.2,0.3,0.5,yes,yes,yes,300234066039120,SVP,EC,ICE-PPR(RCAF-USIABP),North
2018-06-21T13:59:57Z,1529589597,2018,14,0,172.5833,172.5,85.1088,-147.597,999.6,0.3,0.4,yes,yes,yes,300234066039120,SVP,EC,ICE-PPR(RCAF-USIABP),North
2018-06-21T15:00:00Z,1529593200,2018,15,0,172.625,172.625,85.1036,-147.407,999.2,0.3,0.5,yes,yes,yes,300234066039120,SVP,EC,ICE-PPR(RCAF-USIABP),North
2018-06-21T16:00:02Z,1529596803,2018,16,0,172.6667,172.625,85.1036,-147.407,998.6,0.4,0.7,yes,yes,yes,300234066039120,SVP,EC,ICE-PPR(RCAF-USIABP),North
2018-06-21T16:59:57Z,1529600397,2018,17,0,172.7083,172.625,85.1036,-147.407,998.2,0.4,0.7,yes,yes,yes,300234066039120,SVP,EC,ICE-PPR(RCAF-USIABP),North
2018-06-21T18:00:00Z,1529604000,2018,18,0,172.75,172.75,85.0988,-147.225,997.8,0.4,0.7,yes,yes,yes,300234066039120,SVP,EC,ICE-PPR(RCAF-USIABP),North
2018-06-21T19:00:02Z,1529607603,2018,19,0,172.7917,172.75,85.0988,-147.225,997.5,0.4,0.8,yes,yes,yes,300234066039120,SVP,EC,ICE-PPR(RCAF-USIABP),North
2018-06-21T19:59:57Z,1529611197,2018,20,0,172.8333,172.75,85.0988,-147.225,997.2,0.4,0.9,yes,yes,yes,300234066039120,SVP,EC,ICE-PPR(RCAF-USIABP),North
2018-06-21T21:00:00Z,1529614800,2018,21,0,172.875,172.875,85.0948,-147.0848,996.9,0.4,0.8,yes,yes,yes,300234066039120,SVP,EC,ICE-PPR(RCAF-USIABP),North
2018-06-21T22:00:02Z,1529618403,2018,22,0,172.9167,172.875,85.0948,-147.0848,996.7,0.5,0.8,yes,yes,yes,300234066039120,SVP,EC,ICE-PPR(RCAF-USIABP),North
2018-06-21T22:59:57Z,1529621997,2018,23,0,172.9583,172.875,85.0948,-147.0848,996.5,0.5,1.0,yes,yes,yes,300234066039120,SVP,EC,ICE-PPR(RCAF-USIABP),North
2018-06-22T00:00:00Z,1529625600,2018,0,0,173.0,173.0,85.0922,-146.9634,996.5,0.5,1.0,yes,yes,yes,300234066039120,SVP,EC,ICE-PPR(RCAF-USIABP),North
2018-06-22T01:00:02Z,1529629203,2018,1,0,173.0417,173.0,85.0922,-146.9634,996.5,0.5,1.1,yes,yes,yes,300234066039120,SVP,EC,ICE-PPR(RCAF-USIABP),North
2018-06-22T01:59:57Z,1529632797,2018,2,0,173.0833,173.0,85.0922,-146.9634,996.3,0.5,0.7,yes,yes,yes,300234066039120,SVP,EC,ICE-PPR(RCAF-USIABP),North
2018-06-22T03:00:00Z,1529636400,2018,3,0,173.125,173.125,85.0894,-146.8546,996.2,0.5,2.0,yes,yes,yes,300234066039120,SVP,EC,ICE-PPR(RCAF-USIABP),North
2018-06-22T04:00:02Z,1529640003,2018,4,0,173.1667,173.125,85.0894,-146.8546,996.3,0.5,1.5,yes,yes,yes,300234066039120,SVP,EC,ICE-PPR(RCAF-USIABP),North
2018-06-22T04:59:57Z,1529643597,2018,5,0,173.2083,173.125,85.0894,-146.8546,996.4,0.5,1.6,yes,yes,yes,300234066039120,SVP,EC,ICE-PPR(RCAF-USIABP),North
2018-06-22T06:00:00Z,1529647200,2018,6,0,173.25,173.25,85.087,-146.78,996.5,0.5,1.9,yes,yes,yes,300234066039120,SVP,EC,ICE-PPR(RCAF-USIABP),North